Weather History for Tucson Davis Monthan, AZ

Change the Weather History Date:

Sunday, November 24, 2013

  Actual Average Record
Temperature  
Mean Temperature 50 °F -  
Max Temperature 56 °F 70 °F 86 °F (1981)
Min Temperature 43 °F 42 °F 28 °F (1979)
Degree Days  
Heating Degree Days 15    
Moisture  
Dew Point 41 °F    
Average Humidity 70    
Maximum Humidity 83    
Minimum Humidity 54    
Precipitation  
Precipitation 0.00 in - - ()
Sea Level Pressure  
Sea Level Pressure 30.06 in    
Wind  
Wind Speed 7 mph (ENE)    
Max Wind Speed 14 mph    
Max Gust Speed -    
Visibility 10 miles    
Events      
Averages and records for this station are not official NWS values.
T = Trace of Precipitation, MM = Missing Value Source: NWS Daily Summary

Daily Weather History Graph

Daily Weather History Graph

Search for Another Location

Airport:

Trip Planner

Search our weather history database for the weather conditions in past years. The results will help you decide how hot, cold, wet, or windy it might be!

Date:

Astronomy

Nov. 24, 2013 Rise Set
Actual Time 7:00 AM MST 5:19 PM MST
Civil Twilight 6:34 AM MST 5:46 PM MST
Nautical Twilight 6:04 AM MST 6:16 PM MST
Astronomical Twilight 5:35 AM MST 6:45 PM MST
Moon 11:37 PM MST (11/24) 12:00 PM MST (11/24)
Length of Visible Light 11h 11m
Length of Day
10h 18m
Waning Gibbous, 60% of the Moon is Illuminated
Nov 24
Waning Gibbous
Nov 25
Last Quarter
Dec 2
New
Dec 9
First Quarter
Dec 17
Full

Hourly Weather History & Observations

Time (MST) Temp. Windchill Dew Point Humidity Pressure Visibility Wind Dir Wind Speed Gust Speed Precip Events Conditions
12:58 AM 49.8 °F - 43.5 °F 79% 30.03 in 10.0 mi East 8.1 mph - N/A   Mostly Cloudy
1:58 AM 48.7 °F - 43.0 °F 80% 30.01 in 10.0 mi East 8.1 mph - N/A   Scattered Clouds
2:58 AM 47.7 °F - 41.5 °F 79% 30.03 in 10.0 mi East 6.9 mph - N/A   Mostly Cloudy
3:58 AM 48.6 °F - 40.6 °F 74% 30.02 in 10.0 mi ESE 4.6 mph - N/A   Mostly Cloudy
4:58 AM 47.8 °F - 39.9 °F 74% 30.02 in 10.0 mi ENE 6.9 mph - N/A   Scattered Clouds
5:58 AM 47.1 °F - 39.7 °F 76% 30.05 in 10.0 mi East 5.8 mph - N/A   Partly Cloudy
6:58 AM 46.4 °F 41.1 °F 39.4 °F 77% 30.05 in 10.0 mi East 11.5 mph - N/A   Mostly Cloudy
7:58 AM 46.8 °F - 38.5 °F 73% 30.08 in 10.0 mi ESE 9.2 mph - N/A   Clear
8:58 AM 50.5 °F - 39.9 °F 67% 30.09 in 10.0 mi ESE 9.2 mph - N/A   Clear
9:58 AM 52.2 °F - 40.1 °F 64% 30.09 in 10.0 mi ESE 10.4 mph - N/A   Mostly Cloudy
10:58 AM 54.3 °F - 40.6 °F 60% 30.09 in 10.0 mi ESE 3.5 mph - N/A   Scattered Clouds
11:58 AM 55.0 °F - 40.3 °F 58% 30.07 in 10.0 mi Variable 3.5 mph - N/A   Clear
12:58 PM 55.8 °F - 40.5 °F 56% 30.04 in 10.0 mi NW 2.3 mph - N/A   Clear
1:58 PM 56.5 °F - 40.1 °F 54% 30.03 in 10.0 mi NE 1.2 mph - N/A   Partly Cloudy
2:58 PM 56.8 °F - 42.3 °F 58% 30.03 in 10.0 mi WNW 11.5 mph - N/A   Clear
3:58 PM 56.1 °F - 42.4 °F 60% 30.04 in 10.0 mi NNW 13.8 mph - N/A   Clear
4:58 PM 53.8 °F - 42.4 °F 65% 30.04 in 10.0 mi NW 10.4 mph - N/A   Clear
5:58 PM 51.3 °F - 41.7 °F 70% 30.06 in 10.0 mi NW 6.9 mph - N/A   Clear
6:58 PM 50.2 °F - 44.1 °F 79% 30.08 in 10.0 mi NW 5.8 mph - N/A   Partly Cloudy
7:58 PM 49.5 °F - 41.5 °F 74% 30.09 in 10.0 mi West 5.8 mph - N/A   Overcast
8:58 PM 48.0 °F - 40.3 °F 75% 30.11 in 10.0 mi WNW 2.3 mph - N/A   Overcast
9:58 PM 46.2 °F - 39.2 °F 76% 30.12 in 10.0 mi West 2.3 mph - N/A   Clear
10:58 PM 44.6 °F 43.1 °F 38.8 °F 80% 30.12 in 10.0 mi SSW 3.5 mph - N/A   Clear
11:58 PM 43.3 °F - 38.5 °F 83% 30.12 in 10.0 mi SSW 2.3 mph - N/A   Clear